DW0231 Weather Reports


Display with metric or nautical units.
time (UTC)temp
F
wind
direction
speed
MPH
gust
MPH
rain 1hr
in
rain 24hr
in
rain mn
in
humidity
%
barometer
mb
20260905004612 85 222 3.0 0.0 0.00 0.00 0.00 22 1000.4
20260905003023 85 206 4.0 0.0 0.00 0.00 0.00 21 1000.1
20260905001502 86 192 7.0 0.0 0.00 0.00 0.00 20 1000.0
20260905000148 86 206 5.0 0.0 0.00 0.00 0.00 20 1000.0
20260904234601 86 167 6.0 0.0 0.00 0.00 0.00 20 1000.1
20260904233033 87 221 8.0 0.0 0.00 0.00 0.00 19 1000.2
20260904231534 87 206 6.0 0.0 0.00 0.00 0.00 20 1000.3
20260904230122 87 212 7.0 0.0 0.00 0.00 0.00 20 1000.5
20260904224548 87 225 6.0 0.0 0.00 0.00 0.00 19 1000.6
20260904223137 87 203 7.0 0.0 0.00 0.00 0.00 19 1000.8
20260904221505 87 175 7.0 0.0 0.00 0.00 0.00 19 1000.8
20260904220107 87 227 6.0 0.0 0.00 0.00 0.00 18 1001.2
20260904214505 86 219 7.0 0.0 0.00 0.00 0.00 18 1001.3
20260904213017 86 211 6.0 0.0 0.00 0.00 0.00 19 1001.4
20260904211612 86 191 6.0 0.0 0.00 0.00 0.00 19 1001.5
20260904210034 85 198 6.0 0.0 0.00 0.00 0.00 20 1002.1
20260904204624 85 216 7.0 0.0 0.00 0.00 0.00 20 1002.2
20260904203044 85 188 6.0 0.0 0.00 0.00 0.00 22 1002.1
20260904201640 84 215 5.0 0.0 0.00 0.00 0.00 22 1002.0
20260904200100 83 200 6.0 0.0 0.00 0.00 0.00 22 1002.5
20260904194623 83 202 7.0 0.0 0.00 0.00 0.00 23 1002.8
20260904193041 82 181 6.0 0.0 0.00 0.00 0.00 24 1002.8
20260904191624 81 211 7.0 0.0 0.00 0.00 0.00 24 1003.0
20260904190114 81 229 7.0 0.0 0.00 0.00 0.00 25 1003.5
20260904184515 81 178 6.0 0.0 0.00 0.00 0.00 25 1003.7
20260904183116 80 186 6.0 0.0 0.00 0.00 0.00 27 1003.7
20260904181558 79 218 6.0 0.0 0.00 0.00 0.00 26 1003.9
20260904180017 79 211 6.0 0.0 0.00 0.00 0.00 26 1003.9
20260904174506 79 199 6.0 0.0 0.00 0.00 0.00 27 1003.8
20260904173109 78 225 5.0 0.0 0.00 0.00 0.00 28 1003.9
20260904171612 78 192 6.0 0.0 0.00 0.00 0.00 27 1004.0
20260904170135 78 222 6.0 0.0 0.00 0.00 0.00 27 1003.9
20260904164634 77 196 5.0 0.0 0.00 0.00 0.00 27 1003.9
20260904163026 77 217 6.0 0.0 0.00 0.00 0.00 27 1004.0
20260904161637 76 190 7.0 0.0 0.00 0.00 0.00 27 1004.1
20260904160116 76 204 6.0 0.0 0.00 0.00 0.00 28 1003.9
20260904154547 76 224 7.0 0.0 0.00 0.00 0.00 29 1003.9
20260904153102 75 207 7.0 0.0 0.00 0.00 0.00 29 1003.8
20260904151510 75 219 6.0 0.0 0.00 0.00 0.00 30 1003.8
20260904150108 74 196 6.0 0.0 0.00 0.00 0.00 30 1003.9
20260904144603 73 171 7.0 0.0 0.00 0.00 0.00 32 1004.0
20260904143006 73 211 6.0 0.0 0.00 0.00 0.00 30 1004.2
20260904141615 72 213 6.0 0.0 0.00 0.00 0.00 31 1004.2
20260904140051 72 214 4.0 0.0 0.00 0.00 0.00 29 1004.1
20260904134639 72 214 5.0 0.0 0.00 0.00 0.00 27 1004.1
20260904133111 72 203 4.0 0.0 0.00 0.00 0.00 26 1003.9
20260904131537 72 218 5.0 0.0 0.00 0.00 0.00 25 1003.4
20260904130122 72 201 4.0 0.0 0.00 0.00 0.00 25 1003.5
20260904124607 72 200 5.0 0.0 0.00 0.00 0.00 24 1003.4
20260904123045 73 182 4.0 0.0 0.00 0.00 0.00 23 1003.2
20260904121621 72 213 4.0 0.0 0.00 0.00 0.00 23 1003.1
20260904120115 72 194 4.0 0.0 0.00 0.00 0.00 22 1002.9
20260904114523 73 206 4.0 0.0 0.00 0.00 0.00 21 1002.6
20260904113027 73 202 6.0 0.0 0.00 0.00 0.00 21 1002.8
20260904111611 73 200 3.0 0.0 0.00 0.00 0.00 21 1002.8
20260904110002 73 207 5.0 0.0 0.00 0.00 0.00 20 1002.8
20260904104607 74 203 6.0 0.0 0.00 0.00 0.00 19 1002.8
20260904103021 74 267 6.0 0.0 0.00 0.00 0.00 18 1002.8
20260904101627 74 199 7.0 0.0 0.00 0.00 0.00 17 1002.6
20260904100112 74 216 5.0 0.0 0.00 0.00 0.00 17 1002.3
20260904094514 74 209 5.0 0.0 0.00 0.00 0.00 17 1002.2
20260904093131 74 201 5.0 0.0 0.00 0.00 0.00 16 1002.2
20260904091616 75 206 5.0 0.0 0.00 0.00 0.00 16 1002.2
20260904090009 75 215 5.0 0.0 0.00 0.00 0.00 15 1002.1
20260904084510 75 221 3.0 0.0 0.00 0.00 0.00 16 1002.1
20260904083034 76 227 5.0 0.0 0.00 0.00 0.00 15 1002.1
20260904081505 76 190 4.0 0.0 0.00 0.00 0.00 15 1001.7
20260904080118 76 215 3.0 0.0 0.00 0.00 0.00 16 1001.8
20260904074551 76 209 4.0 0.0 0.00 0.00 0.00 16 1001.9
20260904073134 76 185 3.0 0.0 0.00 0.00 0.00 16 1001.8
20260904071600 77 221 3.0 0.0 0.00 0.00 0.00 16 1001.9
20260904070127 77 199 5.0 0.0 0.00 0.00 0.00 16 1002.0
20260904064616 77 218 4.0 0.0 0.00 0.00 0.00 17 1001.9
20260904063107 77 234 4.0 0.0 0.00 0.00 0.00 17 1001.9
20260904061510 77 187 2.0 0.0 0.00 0.00 0.00 17 1002.0
20260904060134 77 196 3.0 0.0 0.00 0.00 0.00 17 1001.9
20260904054637 76 249 3.0 0.0 0.00 0.00 0.00 18 1001.9
20260904053035 77 215 3.0 0.0 0.00 0.00 0.00 18 1001.7
20260904051631 77 194 3.0 0.0 0.00 0.00 0.00 18 1001.8
20260904050114 77 205 3.0 0.0 0.00 0.00 0.00 18 1001.8
20260904044549 78 200 4.0 0.0 0.00 0.00 0.00 17 1001.9
20260904043036 78 219 4.0 0.0 0.00 0.00 0.00 17 1001.9
20260904041621 78 212 2.0 0.0 0.00 0.00 0.00 18 1001.9
20260904040033 78 195 2.0 0.0 0.00 0.00 0.00 18 1001.8
20260904034506 78 213 2.0 0.0 0.00 0.00 0.00 18 1001.7
20260904033110 77 210 3.0 0.0 0.00 0.00 0.00 19 1001.7
20260904031541 77 184 2.0 0.0 0.00 0.00 0.00 19 1001.8
20260904030122 77 185 2.0 0.0 0.00 0.00 0.00 20 1001.7
20260904024619 78 209 2.0 0.0 0.00 0.00 0.00 20 1001.7
20260904023057 78 202 1.0 0.0 0.00 0.00 0.00 19 1001.5
20260904021541 78 199 2.0 0.0 0.00 0.00 0.00 20 1001.7
20260904020127 78 209 1.0 0.0 0.00 0.00 0.00 21 1001.6
20260904014617 80 210 2.0 0.0 0.00 0.00 0.00 20 1001.5
20260904013128 80 197 4.0 0.0 0.00 0.00 0.00 19 1001.6
20260904011558 81 208 3.0 0.0 0.00 0.00 0.00 20 1001.7
20260904010128 81 204 6.0 0.0 0.00 0.00 0.00 18 1001.7